Regional Weather Roundup
Issued by NWS Wakefield, VA

Home | Current Version | Previous Version | Graphics & Text | Print | Product List | Glossary On
Versions: 1 2 3 4 5 6 7 8 9 10 11 12 13 14 15 16 17 18 19 20 21 22 23 24 25 26 27 28 29 30 31 32 33 34 35 36 37 38 39 40 41 42 43 44 45 46 47 48 49 50
000
ASUS41 KAKQ 311010
RWRAKQ

REGIONAL WEATHER ROUNDUP
NATIONAL WEATHER SERVICE WAKEFIELD VA
600 AM EDT THU JUL 31 2014

Note: "fair" indicates few or no clouds below 12,000 feet with no
significant weather and/or obstructions to visibility. * = Denotes
station may not report precipitation (e.g., rain,snow,etc.),
thunder or fog.

VAZ042-051-052>054-056-311100-
NORTHERN VIRGINIA

CITY           SKY/WX    TMP DP  RH WIND       PRES   REMARKS
WASH NATIONAL  CLEAR     67  60  78 SW6       30.09R
DULLES         PTCLDY    59  56  89 CALM      30.08R
FORT BELVOIR   MOCLDY    59  57  94 CALM      30.10R
QUANTICO       MOCLDY    64  58  80 W3        30.10R
FREDERICKSBRG* CLEAR     62  60  94 CALM      30.09R
STAFFORD*      CLEAR     56  56 100 CALM      30.13S
WARRENTON      FOG       57  57 100 CALM      30.09R VSB 1/2
CULPEPER*      FOG      N/A N/A N/A CALM      30.10R VSB 3/4
MANASSAS*      NOT AVBL
LEESBURG*      CLEAR     59  59 100 CALM      30.09R
WINCHESTER     CLEAR     59  55  88 CALM      30.09S
$$

VAZ048-049-060>072-079>083-311100-
CENTRAL AND SOUTH CENTRAL VIRGINIA...AND NORTH CENTRAL NORTH CAROLINA

CITY           SKY/WX    TMP DP  RH WIND       PRES   REMARKS
RICHMOND       PTCLDY    66  61  84 CALM      30.10R
CHESTERFIELD*  MOSUNNY   61  50  67 CALM      30.12R
HANOVER        CLEAR     59  58  96 CALM      30.12R FOG
TAPPAHANNOCK*  CLEAR     63  60  89 S3        30.10S
CHARLOTTSVILLE CLEAR     58  56  93 CALM      30.10R
ORANGE*        CLEAR     55  54  94 CALM      30.11R
LOUISA*        CLEAR     61  57  88 CALM      30.09S
FARMVILLE*     PTCLDY    55  55 100 CALM      30.09S FOG
SOUTH HILL*    PTCLDY    63  63 100 CALM      30.15S
ROANOKE RAPIDS NOT AVBL
RALEIGH        MOCLDY    67  64  90 CALM      30.10R
$$

VAZ088>098-311100-
SOUTHEAST VIRGINIA

CITY           SKY/WX    TMP DP  RH WIND       PRES   REMARKS
NORFOLK        PTCLDY    66  60  81 SW5       30.11R
VIRGINIA BEACH PTCLDY    63  61  93 CALM      30.10R
NORFOLK NAVAL  PTCLDY    70  62  76 CALM      30.12R
WEST POINT*    CLEAR     68  63  85 CALM      30.12R
NEWPORT NEWS   PTCLDY    65  61  87 CALM      30.11R
LANGLEY AFB    PTCLDY    65  65  99 CALM      30.10R
FORT EUSTIS    PTCLDY    68  68 100 S2        30.09R
WILLIAMSBURG*  PTCLDY    70  64  83 CALM      30.11S
FRANKLIN*      PTCLDY    61 N/A N/A CALM      30.11R
WAKEFIELD      PTCLDY    62  59  90 CALM      30.11R FOG
$$

VAZ020-022-025-037-045-311100-
WESTERN AND SOUTHWEST VIRGINIA

CITY           SKY/WX    TMP DP  RH WIND       PRES   REMARKS
STAUNTON*      CLEAR     53  50  90 CALM      30.13S
HOT SPRINGS VA CLEAR     55  49  79 W10       30.21S
LYNCHBURG      CLEAR     57  56  96 CALM      30.13R
DANVILLE       PTCLDY    61  58  90 CALM      30.11R FOG
MARTINSVILLE   PTCLDY    55  55  98 CALM      30.14S FOG
ROANOKE        PTCLDY    59  54  83 NW5       30.15R
BLACKSBURG     CLEAR     54  54 100 CALM        N/A  FOG
DUBLIN*        PTCLDY    54  53  98 CALM      30.18R
MARION*        PTCLDY    52  50  95 CALM      30.21S FOG
HILLSVILLE*    PTCLDY    54  53  95 CALM      30.18S
RICHLANDS*     PTSUNNY   59  55  86 CALM      30.18R
WISE*          PTCLDY    59  55  88 CALM      30.18S
ABINGDON*      PTCLDY    58  56  91 E3        30.16R
$$

MDZ021>025-VAZ099-100-311100-
SOUTHERN MARYLAND AND THE DELMARVA PENINSULA

CITY           SKY/WX    TMP DP  RH WIND       PRES   REMARKS
PATUXENT RIVER CLEAR     66  62  87 S5        30.09R
BAY BRIDGE APT   N/A     70  61  73 SW5       30.09R
LEONARDTOWN    CLEAR     64  61  88 SW3       30.11R
DOVER          CLEAR     61  57  88 S6        30.07R
GEORGETOWN     CLEAR     60  56  86 CALM      30.11R
EASTON         CLEAR     65  63  91 CALM      30.13R
CAMBRIDGE      CLEAR     61  57  88 SE3       30.09S
SALISBURY      CLEAR     61  56  83 CALM      30.10R
OCEAN CITY     CLEAR     57  55  93 CALM      30.10R
WALLOPS ISLAND CLEAR     69  62  78 SW7       30.11R
ACCOMACK*        N/A     63  59  88 S5        30.10R
$$

NCZ012>017-030>032-311100-
EASTERN NORTH CAROLINA

CITY           SKY/WX    TMP DP  RH WIND       PRES   REMARKS
ELIZABETH CITY PTCLDY    63  61  93 CALM      30.11R
AHOSKIE*       PTCLDY    62  60  94 CALM      30.11S
EDENTON*       PTCLDY    65  63  95 CALM      30.11R
CURRITUCK*     PTCLDY    64  60  87 CALM      30.12R
KILL DEVIL HLS PTCLDY    71  64  76 CALM      30.10R
MANTEO         NOT AVBL
CAPE HATTERAS  PTCLDY    73  64  73 NE6       30.09R
GOLDSBORO      CLOUDY    70  69  98 CALM      30.08R
WASHINGTON     PTCLDY    64  63  95 CALM      30.10R
GREENVILLE     CLOUDY    64  64 100 CALM      30.11S
NEW BERN       CLEAR     69  65  86 CALM      30.10R
WILMINGTON     PTCLDY    70  67  90 NE5       30.06R
$$

VAZ048-311100-
ELSEWHERE

CITY           SKY/WX    TMP DP  RH WIND       PRES   REMARKS
HARRISBURG PA  PTCLDY    63  61  93 CALM      30.07R
BALTIMORE      PTCLDY    59  55  87 CALM      30.08R
ANNAPOLIS      CLEAR     66  60  81 CALM      30.08R
ANDREWS AFB    CLEAR     62  59  92 S6        30.09R
WILMINGTON DE  PTCLDY    63  56  78 S5        30.09R
PHILADELPHIA   PTCLDY    67  57  70 S6        30.09R
WILDWOOD NJ*   CLEAR     61  55  82 CALM      30.11R
ATLANTIC CITY  CLEAR     57  55  93 CALM      30.10R
HENDERSON NC   MOCLDY    64  62  94 CALM      30.10R FOG
GREENSBORO     MOCLDY    64  61  90 CALM      30.11R
ROCKY MOUNT    CLOUDY    66  64  93 CALM      30.10R
FAYETTEVILLE   CLOUDY    70  67  90 NE5       30.08R
CHARLOTTE      CLOUDY    71  63  75 E3        30.09S
$$

VAZ100-311100-
MARINE

STATION/POSITION TIME  TEMP    WIND        PRES    WAVE   SWELL
                       AIR SEA DIR/SP/G            HT/PER HT/PER
                 (UTC) (F)     (DEG/KT/KT) (MB)    (FT/S) (FT/S)
44066 TX TWR #4  1000   72 74  250/  8/ 10 1019.2R   3/ 8   3/ 8
CAPE MAY NJ      1000   69 76  190/  6/  8 1018.6S
LEWES DE         1000   65 71  210/  4/  7 1018.8R
15NM E FENWICK I 1000   72 73              1019.6R   3/ 8
OCEAN-CITY-INLET 1000   69 71  240/  4/  5 1018.8R
WACHAPREAGUE VA  1000   65 78     CALM     1019.2S
THOMAS POINT MD  1000   70 77  230/ 12/ 14 1019.2R
GOOSES REEF MD   1000   71     230/ 14/ 16 1018.9S
COVE POINT MD    1000   69     230/  9/ 12 1018.5S
SOLOMONS ISLAND  1000      79                N/A
BISHOPS HEAD MD  1000   74 76  220/ 12/ 14 1018.4R
PINEY POINT MD   1000          230/ 11/ 12   N/A
POTOMAC MD       0900   72     220/ 12/ 16 1017.6S
CAMBRIDGE MD     1000   66 78  190/  2/  3 1018.5S
LEWISETTA VA     1000   68 77  230/  8/  9 1018.7S
RAPPAHANNOCK LGT 1000          190/ 11/ 13 1019.6R
STINGRAY PT      1000   73     210/ 10/ 12 1019.6S
YORK RVR RNG VA  1000   73     200/ 10/ 11 1018.5S
YORKTOWN VA      1000   70 79  200/  5/  7 1018.8S
JAMESTOWN VA     1000   68     220/  8/ 10   N/A
DOMINION TERM VA 1000   73     180/  7/  8 1019.2F
KIPTOPEKE VA     1000      80  200/  7/  9   N/A
CHES BAY BRIDGE  1000   72 77  180/  7/  8 1018.7S
CAPE HENRY VA    1000   70     200/  6/  7 1018.1S
WILLOUBY STN VA  1000          180/  6/  6 1018.6R
S CRANEY ISL VA  1000          160/  3/  5 1019.4R
CAPE HENRY BUOY  1000      74                N/A     2/ 8
1ST LANDING BUOY 1000   72     210/  6/  8 1019.0S
CAPE CHARLES BUO 1000      76                N/A     2/ 8
OFFSHORE WE BUOY 1000      77                N/A     2/ 7
64NM E OF VA BCH 1000   76 77  120/  4/  4 1019.2R   2/ 8   2/ 8
DUCK PIER NC     1000   75 76  130/  5/  6 1018.5R
44056 DUCK FRF   1000                        N/A     2/ 8
OREGON INLET NC  1000   75 79   70/  4/  7 1018.9S
HATTERAS NC      1000   74 80   60/  3/  4 1019.0R
DIAMOND SHLS NC  1000          VRB 10/ 14  1018.3R   3/ 6   3/ 6
CAPE LOOKOUT NC  0900   79      90/ 11/ 12 1017.8S
$$



USA.gov is the U.S. government's official web portal to all federal, state and local government web resources and services.